Location: Unspecified
(0.0000°N, 0.0000°E)
Time: 14:50:59
(UTC+00:00)

Altair - Pass Details

Date: 16 March 2026
Orbit: 1502 x 1682 km, 47.2° (Epoch: 18 April)

Event Time Altitude Azimuth Distance (km) Brightness Sun altitude
Rises 04:37:45 0° 343° (NNW) 4,642 9.8 -22.7°
Reaches altitude 10° 04:41:28 10° 356° (N) 3,680 9.4 -21.8°
Maximum altitude 04:48:50 26° 49° (NE) 2,680 9.2 -20.0°
Drops below altitude 10° 04:56:22 10° 102° (ESE) 3,792 10.8 -18.1°
Sets 05:00:12 0° 113° (ESE) 4,809 11.4 -17.1°
